DJ8HS-1 Weather Reports


time (UTC)temp
F
wind
direction
speed
knots
gust
knots
rain 1hr
in
rain 24hr
in
rain mn
in
humidity
%
barometer
mb
20260507093346 55 1 2.6 4.3 0.00 0.00 0.00 71
20260507092846 54 302 0.0 7.0 0.00 0.00 0.00 71
20260507092346 54 292 0.9 5.2 0.00 0.00 0.00 72
20260507091845 54 274 0.0 5.2 0.00 0.00 0.00 74
20260507091345 54 251 3.5 5.2 0.00 0.00 0.00 74
20260507090845 53 0 0.9 4.3 0.00 0.00 0.00 75
20260507090344 53 291 0.9 3.5 0.00 0.00 0.00 76
20260507085844 53 205 0.0 4.3 0.00 0.00 0.00 76
20260507085344 53 244 0.9 4.3 0.00 0.00 0.00 76
20260507084843 53 305 1.7 5.2 0.00 0.00 0.00 76
20260507084343 53 303 1.7 3.5 0.00 0.00 0.00 76
20260507083843 53 303 0.9 2.6 0.00 0.00 0.00 76
20260507083343 53 140 0.0 1.7 0.00 0.00 0.00 76
20260507082842 52 348 0.0 2.6 0.00 0.00 0.00 76
20260507082343 52 182 0.0 2.6 0.00 0.00 0.00 76
20260507081842 53 45 0.0 2.6 0.00 0.00 0.00 76
20260507081341 53 284 0.0 2.6 0.00 0.00 0.00 75
20260507080841 53 250 0.0 2.6 0.00 0.00 0.00 74
20260507080341 53 271 0.0 0.9 0.00 0.00 0.00 74
20260507075841 53 296 0.0 3.5 0.00 0.00 0.00 74
20260507075340 53 16 3.5 4.3 0.00 0.00 0.00 75
20260507074840 53 312 0.0 3.5 0.00 0.00 0.00 74
20260507074340 53 306 0.0 1.7 0.00 0.00 0.00 74
20260507073839 53 210 0.0 2.6 0.00 0.00 0.00 74
20260507073339 52 303 0.9 4.3 0.00 0.00 0.00 74
20260507072839 52 316 0.9 2.6 0.00 0.00 0.00 75
20260507072339 52 11 0.0 2.6 0.00 0.00 0.00 75
20260507071838 52 7 0.0 3.5 0.00 0.00 0.00 76
20260507071338 52 9 0.0 3.5 0.00 0.00 0.00 76
20260507070838 52 26 0.0 3.5 0.00 0.00 0.00 76
20260507070337 52 191 0.0 2.6 0.00 0.00 0.00 76
20260507065837 52 270 0.0 1.7 0.00 0.00 0.00 76
20260507065337 51 286 0.0 3.5 0.00 0.00 0.00 76
20260507064836 51 258 1.7 5.2 0.00 0.00 0.00 76
20260507064336 51 15 0.0 3.5 0.00 0.00 0.00 77
20260507063836 51 302 0.9 5.2 0.00 0.00 0.00 77
20260507063336 51 40 1.7 5.2 0.00 0.00 0.00 77
20260507062835 51 2 0.0 6.1 0.00 0.00 0.00 78
20260507062335 51 14 0.0 6.1 0.00 0.00 0.00 78
20260507061835 52 29 3.5 6.1 0.00 0.00 0.00 78
20260507061334 51 32 3.5 3.5 0.00 0.00 0.00 78
20260507060834 51 11 0.0 3.5 0.00 0.00 0.00 79
20260507060334 51 340 2.6 5.2 0.00 0.00 0.00 79
20260507055834 51 324 0.0 0.9 0.00 0.00 0.00 80
20260507055333 51 285 0.0 0.0 0.00 0.00 0.00 80
20260507054833 51 285 0.0 0.0 0.00 0.00 0.00 80
20260507054333 51 285 0.0 0.0 0.00 0.00 0.00 80
20260507053832 51 285 0.0 0.0 0.00 0.00 0.00 80
20260507053332 51 285 0.0 0.0 0.00 0.00 0.00 80
20260507052832 51 285 0.0 0.0 0.00 0.00 0.00 80
20260507052331 51 285 0.0 0.0 0.00 0.00 0.00 80
20260507051831 51 285 0.0 3.5 0.00 0.00 0.00 80
20260507051331 51 265 0.0 0.9 0.00 0.00 0.00 81
20260507050831 50 265 0.0 0.0 0.00 0.00 0.00 80
20260507050330 50 8 0.0 0.0 0.00 0.00 0.00 80
20260507045830 50 8 0.0 4.3 0.00 0.00 0.00 80
20260507045330 51 49 3.5 5.2 0.00 0.00 0.00 80
20260507044829 51 274 0.0 1.7 0.00 0.00 0.00 80
20260507044329 51 284 0.0 2.6 0.00 0.00 0.00 80
20260507043829 51 240 0.0 1.7 0.00 0.00 0.00 80
20260507043328 51 322 0.9 1.7 0.00 0.00 0.00 80
20260507042828 51 217 0.0 0.0 0.00 0.00 0.00 80
20260507042328 51 217 0.0 0.0 0.00 0.00 0.00 80
20260507041828 51 217 0.0 0.0 0.00 0.00 0.00 80
20260507041327 51 217 0.0 0.0 0.00 0.00 0.00 80
20260507040827 51 217 0.0 0.0 0.00 0.00 0.00 80
20260507040327 51 217 0.0 0.0 0.00 0.00 0.00 80
20260507035826 51 217 0.0 0.0 0.00 0.00 0.00 80
20260507035326 51 217 0.0 1.7 0.00 0.00 0.00 80
20260507034826 51 352 0.0 1.7 0.00 0.00 0.00 80
20260507034326 51 272 0.0 0.9 0.00 0.00 0.00 80
20260507033825 51 278 0.0 0.9 0.00 0.00 0.00 80
20260507033325 51 347 0.0 2.6 0.00 0.00 0.00 80
20260507032825 51 338 0.0 3.5 0.00 0.00 0.00 80
20260507032324 51 348 0.0 0.0 0.00 0.00 0.00 81
20260507031824 51 348 0.0 1.7 0.00 0.00 0.00 81
20260507031324 51 274 0.0 2.6 0.00 0.00 0.00 81
20260507030823 51 299 0.0 0.0 0.00 0.00 0.00 81
20260507030323 51 299 0.0 0.0 0.00 0.00 0.00 80
20260507025823 51 299 0.0 0.9 0.00 0.00 0.00 81
20260507025323 51 4 0.0 0.0 0.00 0.00 0.00 80
20260507024822 51 4 0.0 0.0 0.00 0.00 0.00 81
20260507024322 51 4 0.0 0.0 0.00 0.00 0.00 80
20260507023822 51 4 0.0 4.3 0.00 0.00 0.00 80
20260507023321 51 226 0.0 0.0 0.00 0.00 0.00 81
20260507022821 51 226 0.0 1.7 0.00 0.00 0.00 81
20260507022321 51 209 0.0 0.0 0.00 0.00 0.00 81
20260507021821 51 209 0.0 0.0 0.00 0.00 0.00 80
20260507021320 51 209 0.0 2.6 0.00 0.00 0.00 80
20260507020820 51 334 1.7 2.6 0.00 0.00 0.00 81
20260507020320 51 317 0.0 3.5 0.00 0.00 0.00 81
20260507015819 51 319 0.0 3.5 0.00 0.00 0.00 81
20260507015319 51 343 0.9 3.5 0.00 0.00 0.00 81
20260507014819 51 324 0.9 6.1 0.00 0.00 0.00 81
20260507014318 51 312 0.0 5.2 0.00 0.00 0.00 81
20260507013818 51 299 0.0 4.3 0.00 0.00 0.00 81
20260507013318 51 312 0.9 3.5 0.00 0.00 0.00 82
20260507012818 51 84 0.0 0.0 0.00 0.00 0.00 82
20260507012317 51 84 0.0 1.7 0.00 0.00 0.00 82
20260507011817 51 354 0.0 0.0 0.00 0.00 0.00 82
20260507011317 51 354 0.0 1.7 0.00 0.00 0.00 82
20260507010816 51 178 0.0 1.7 0.00 0.00 0.00 82
20260507010316 51 180 0.0 1.7 0.00 0.00 0.00 82
20260507005816 51 4 0.0 4.3 0.00 0.00 0.00 82
20260507005316 51 199 0.9 5.2 0.00 0.00 0.00 82
20260507004815 51 302 0.0 0.0 0.00 0.00 0.00 82
20260507004315 51 234 0.0 0.0 0.00 0.00 0.00 82
20260507003815 51 234 0.0 3.5 0.00 0.00 0.00 82
20260507003314 51 39 1.7 4.3 0.00 0.00 0.00 82
20260507002814 51 307 0.0 1.7 0.00 0.00 0.00 82
20260507002314 51 329 0.0 0.0 0.00 0.00 0.00 82
20260507001813 51 0 0.0 3.5 0.00 0.00 0.00 83
20260507001313 51 319 3.5 3.5 0.00 0.00 0.00 83
20260507000813 51 274 0.0 7.0 0.00 0.00 0.00 82
20260507000314 51 12 3.5 7.8 0.00 0.00 0.00 83
20260506235812 51 317 0.0 0.0 0.00 0.00 0.00 84
20260506235312 51 317 0.0 3.5 0.00 0.00 0.00 84
20260506234812 51 1 0.0 1.7 0.00 0.00 0.00 84
20260506234311 51 208 0.0 4.3 0.00 0.00 0.00 84
20260506233811 51 323 0.9 3.5 0.00 0.00 0.00 84
20260506233311 51 4 0.0 2.6 0.00 0.00 0.00 84
20260506232811 51 247 2.6 3.5 0.00 0.00 0.00 84
20260506232310 51 250 0.9 5.2 0.00 0.00 0.00 84
20260506231810 51 345 0.0 3.5 0.00 0.00 0.00 84
20260506231310 51 275 0.0 5.2 0.00 0.00 0.00 84
20260506230809 51 293 0.0 2.6 0.00 0.00 0.00 84
20260506230309 51 244 0.0 0.9 0.00 0.00 0.00 84
20260506225809 52 244 0.0 1.7 0.00 0.00 0.00 84
20260506225308 52 320 0.0 2.6 0.00 0.00 0.00 84
20260506224808 51 255 0.0 0.9 0.00 0.00 0.00 84
20260506224308 51 5 0.0 3.5 0.00 0.00 0.00 84
20260506223808 51 232 0.0 3.5 0.00 0.00 0.00 83
20260506223307 52 220 0.0 3.5 0.00 0.00 0.00 83
20260506222807 51 303 0.0 1.7 0.00 0.00 0.00 84
20260506222307 52 264 0.0 1.7 0.00 0.00 0.00 83
20260506221806 52 312 0.0 2.6 0.00 0.00 0.00 83
20260506221306 52 347 0.0 0.0 0.00 0.00 0.00 83
20260506220806 52 347 0.0 0.0 0.00 0.00 0.00 83
20260506220305 52 347 0.0 0.0 0.00 0.00 0.00 83
20260506215805 52 347 0.0 0.0 0.00 0.00 0.00 83
20260506215306 52 347 0.0 0.0 0.00 0.00 0.00 83
20260506214805 52 347 0.0 0.0 0.00 0.00 0.00 83
20260506214304 52 347 0.0 0.0 0.00 0.00 0.00 83
20260506213804 52 347 0.0 0.0 0.00 0.00 0.00 83
20260506213304 52 347 0.0 1.7 0.00 0.00 0.00 83
20260506212803 52 319 0.0 0.0 0.00 0.00 0.00 83
20260506212306 52 319 0.0 3.5 0.00 0.00 0.00 83
20260506211803 52 347 0.0 4.3 0.00 0.00 0.00 83
20260506211303 52 49 1.7 4.3 0.00 0.00 0.00 83
20260506210802 52 351 0.0 3.5 0.00 0.00 0.00 83
20260506210302 52 267 0.0 0.9 0.00 0.00 0.00 83
20260506205802 52 265 0.0 0.0 0.00 0.00 0.00 83
20260506205305 52 265 0.0 2.6 0.00 0.00 0.00 83
20260506204801 52 278 0.0 0.0 0.00 0.00 0.00 82
20260506204301 52 278 0.0 1.7 0.00 0.00 0.00 82
20260506203801 52 1 0.9 2.6 0.00 0.00 0.00 82
20260506203300 53 326 0.0 2.6 0.00 0.00 0.00 82
20260506202800 52 267 0.9 3.5 0.00 0.00 0.00 82
20260506202300 53 78 0.0 2.6 0.00 0.00 0.00 82
20260506201759 53 358 0.0 3.5 0.00 0.00 0.00 82
20260506201259 53 37 0.0 5.2 0.00 0.00 0.00 82
20260506200759 53 350 0.0 3.5 0.00 0.00 0.00 82
20260506200258 53 316 0.0 5.2 0.00 0.00 0.00 82
20260506195758 53 33 0.0 3.5 0.00 0.00 0.00 82
20260506195258 53 345 0.9 6.1 0.00 0.00 0.00 82
20260506194758 53 262 4.3 7.0 0.00 0.00 0.00 82
20260506194257 53 4 0.0 2.6 0.00 0.00 0.00 82
20260506193757 53 345 0.0 3.5 0.00 0.00 0.00 82
20260506193257 53 316 1.7 5.2 0.00 0.00 0.00 82
20260506192756 53 351 0.9 5.2 0.00 0.00 0.00 81
20260506192256 54 251 0.0 6.1 0.00 0.00 0.00 81
20260506191756 54 0 1.7 4.3 0.00 0.00 0.00 81
20260506191255 54 223 0.0 0.0 0.00 0.00 0.00 81
20260506190755 54 223 0.0 4.3 0.00 0.00 0.00 82
20260506190255 54 264 0.0 6.1 0.00 0.00 0.00 81
20260506185755 54 331 0.0 3.5 0.00 0.00 0.00 81
20260506185254 55 270 2.6 2.6 0.00 0.00 0.00 81
20260506184754 55 253 0.0 1.7 0.00 0.00 0.00 80
20260506184254 55 258 0.0 4.3 0.00 0.00 0.00 80
20260506183753 55 198 0.0 5.2 0.00 0.00 0.00 80
20260506183253 55 295 0.0 1.7 0.00 0.00 0.00 79
20260506182753 56 18 0.0 2.6 0.00 0.00 0.00 79
20260506182253 55 14 1.7 3.5 0.00 0.00 0.00 79
20260506181752 56 341 0.9 4.3 0.00 0.00 0.00 79
20260506181252 56 257 0.0 5.2 0.00 0.00 0.00 79
20260506180752 56 16 0.9 3.5 0.00 0.00 0.00 79
20260506180251 56 16 0.9 1.7 0.00 0.00 0.00 80
20260506175751 56 340 0.0 4.3 0.00 0.00 0.00 80
20260506175251 56 333 0.0 4.3 0.00 0.00 0.00 81
20260506174751 56 358 2.6 3.5 0.00 0.00 0.00 81
20260506174250 56 265 0.0 5.2 0.00 0.00 0.00 81
20260506173750 57 261 0.9 5.2 0.00 0.00 0.00 82
20260506173250 57 312 0.0 3.5 0.00 0.00 0.00 82
20260506172749 56 293 0.0 5.2 0.00 0.00 0.00 81
20260506172249 56 357 2.6 5.2 0.00 0.00 0.00 82
20260506171749 56 237 0.0 0.0 0.00 0.00 0.00 83
20260506171248 56 237 0.0 0.0 0.00 0.00 0.00 83
20260506170748 56 237 0.0 2.6 0.00 0.00 0.00 83
20260506170248 56 292 1.7 3.5 0.00 0.00 0.00 83
20260506165748 56 285 0.9 3.5 0.00 0.00 0.00 83
20260506165247 56 341 0.9 7.0 0.00 0.00 0.00 83
20260506164747 56 322 0.0 6.1 0.00 0.00 0.00 83
20260506164247 56 336 5.2 7.8 0.00 0.00 0.00 83
20260506163746 57 347 0.0 6.1 0.00 0.00 0.00 82
20260506163246 57 1 6.1 7.8 0.00 0.00 0.00 82
20260506162746 57 258 0.0 1.7 0.00 0.00 0.00 83
20260506162245 57 208 0.0 0.0 0.00 0.00 0.00 82
20260506161745 58 208 0.0 3.5 0.00 0.00 0.00 82
20260506161245 58 296 0.0 3.5 0.00 0.00 0.00 82
20260506160745 58 350 3.5 3.5 0.00 0.00 0.00 82
20260506160244 58 317 0.0 4.3 0.00 0.00 0.00 82
20260506155744 58 215 0.0 4.3 0.00 0.00 0.00 81
20260506155244 58 344 0.0 4.3 0.00 0.00 0.00 82
20260506154743 59 352 1.7 2.6 0.00 0.00 0.00 83
20260506154243 58 281 0.0 4.3 0.00 0.00 0.00 82
20260506153743 59 70 0.0 4.3 0.00 0.00 0.00 81
20260506153243 59 329 1.7 4.3 0.00 0.00 0.00 81
20260506152742 59 295 0.9 7.0 0.00 0.00 0.00 81
20260506152242 60 334 1.7 4.3 0.00 0.00 0.00 82
20260506151742 60 300 0.0 3.5 0.00 0.00 0.00 83
20260506151241 60 275 0.0 2.6 0.00 0.00 0.00 82
20260506150741 60 319 0.0 0.9 0.00 0.00 0.00 82
20260506150241 60 331 0.0 1.7 0.00 0.00 0.00 81
20260506145741 60 305 0.0 0.9 0.00 0.00 0.00 81
20260506145240 60 8 0.0 0.0 0.00 0.00 0.00 82
20260506144740 60 8 0.0 0.0 0.00 0.00 0.00 82
20260506144240 60 8 0.0 1.7 0.00 0.00 0.00 82
20260506143739 60 170 0.0 2.6 0.00 0.00 0.00 81
20260506143239 60 244 0.0 1.7 0.00 0.00 0.00 80
20260506142739 60 28 0.0 2.6 0.00 0.00 0.00 80
20260506142238 60 260 1.7 1.7 0.00 0.00 0.00 80
20260506141738 60 246 0.0 10.4 0.00 0.00 0.00 79
20260506141238 61 243 3.5 9.6 0.00 0.00 0.00 76
20260506140738 61 223 5.2 6.1 0.00 0.00 0.00 76
20260506140237 62 267 0.9 8.7 0.00 0.00 0.00 75
20260506135737 61 189 0.0 4.3 0.00 0.00 0.00 76
20260506135237 61 9 0.0 7.8 0.00 0.00 0.00 75
20260506134736 61 272 3.5 4.3 0.00 0.00 0.00 76
20260506134236 61 262 0.0 5.2 0.00 0.00 0.00 76
20260506133736 61 253 0.0 4.3 0.00 0.00 0.00 76
20260506133235 62 244 2.6 6.1 0.00 0.00 0.00 75
20260506132735 62 203 0.0 5.2 0.00 0.00 0.00 74
20260506132235 63 192 0.9 3.5 0.00 0.00 0.00 68
20260506131735 63 305 0.0 3.5 0.00 0.00 0.00 66
20260506131234 63 355 1.7 4.3 0.00 0.00 0.00 66
20260506130734 63 23 0.0 3.5 0.00 0.00 0.00 66
20260506130234 63 74 0.0 0.9 0.00 0.00 0.00 67
20260506125733 62 15 0.0 2.6 0.00 0.00 0.00 67
20260506125233 62 340 0.0 4.3 0.00 0.00 0.00 67
20260506124733 63 357 1.7 5.2 0.00 0.00 0.00 67
20260506124233 62 350 0.9 6.1 0.00 0.00 0.00 65
20260506123732 63 291 5.2 6.1 0.00 0.00 0.00 63
20260506123232 63 28 1.7 7.0 0.00 0.00 0.00 61
20260506122732 64 281 1.7 6.1 0.00 0.00 0.00 61
20260506122231 64 188 0.9 7.0 0.00 0.00 0.00 60
20260506121731 64 284 2.6 6.1 0.00 0.00 0.00 60
20260506121231 64 258 4.3 7.8 0.00 0.00 0.00 60
20260506120730 64 239 3.5 7.0 0.00 0.00 0.00 60
20260506120230 64 307 0.9 8.7 0.00 0.00 0.00 58
20260506115730 64 127 0.9 7.0 0.00 0.00 0.00 58
20260506115230 64 172 0.0 7.8 0.00 0.00 0.00 59
20260506114729 64 264 2.6 7.0 0.00 0.00 0.00 59
20260506114229 64 195 0.0 5.2 0.00 0.00 0.00 58
20260506113729 65 299 0.9 5.2 0.00 0.00 0.00 58
20260506113228 64 284 3.5 7.8 0.00 0.00 0.00 60
20260506112728 64 251 1.7 4.3 0.00 0.00 0.00 61
20260506112228 64 257 0.0 4.3 0.00 0.00 0.00 62
20260506111728 64 251 4.3 6.1 0.00 0.00 0.00 61
20260506111227 64 175 0.0 3.5 0.00 0.00 0.00 61
20260506110727 64 254 0.9 6.1 0.00 0.00 0.00 61
20260506110227 64 262 1.7 5.2 0.00 0.00 0.00 62
20260506105726 63 237 4.3 4.3 0.00 0.00 0.00 61
20260506105226 64 236 2.6 4.3 0.00 0.00 0.00 62
20260506104726 63 232 0.9 7.0 0.00 0.00 0.00 62
20260506104225 63 198 0.0 7.8 0.00 0.00 0.00 65
20260506103725 62 163 0.9 7.8 0.00 0.00 0.00 65
20260506103225 62 284 3.5 5.2 0.00 0.00 0.00 65
20260506102725 62 316 1.7 6.1 0.00 0.00 0.00 66
20260506102224 62 310 2.6 3.5 0.00 0.00 0.00 66
20260506101724 62 265 0.9 6.1 0.00 0.00 0.00 65
20260506101224 62 234 4.3 7.0 0.00 0.00 0.00 66
20260506100723 61 258 2.6 5.2 0.00 0.00 0.00 68
20260506100223 61 289 4.3 7.0 0.00 0.00 0.00 69
20260506095723 61 271 2.6 4.3 0.00 0.00 0.00 68
20260506095222 61 261 1.7 6.1 0.00 0.00 0.00 67
20260506094722 61 278 5.2 7.8 0.00 0.00 0.00 66
20260506094222 62 282 2.6 6.1 0.00 0.00 0.00 66
20260506093722 62 215 2.6 5.2 0.00 0.00 0.00 67